Weather History for Poplar Bluff, MO

Change the Weather History Date:

Saturday, May 12, 2012

  Actual Average Record
Temperature  
Mean Temperature 68 °F -  
Max Temperature 77 °F 78 °F 91 °F (2005)
Min Temperature 62 °F 56 °F 39 °F (1951)
Cooling Degree Days 4    
Growing Degree Days 18 (Base 50)    
Moisture  
Dew Point 52 °F    
Average Humidity 57    
Maximum Humidity 73    
Minimum Humidity 40    
Precipitation  
Precipitation 0.00 in - - ()
Sea Level Pressure  
Sea Level Pressure 30.13 in    
Wind  
Wind Speed 3 mph (NE)    
Max Wind Speed 9 mph    
Max Gust Speed -    
Visibility 8 miles    
Events      
Averages and records for this station are not official NWS values.
T = Trace of Precipitation, MM = Missing Value Source: NWS Daily Summary

Daily Weather History Graph

Daily Weather History Graph

Search for Another Location

Airport:

Trip Planner

Search our weather history database for the weather conditions in past years. The results will help you decide how hot, cold, wet, or windy it might be!

Date:

Astronomy

May. 12, 2012 Rise Set
Actual Time 5:55 AM CDT 7:59 PM CDT
Civil Twilight 5:27 AM CDT 8:28 PM CDT
Nautical Twilight 4:52 AM CDT 9:03 PM CDT
Astronomical Twilight 4:14 AM CDT 9:41 PM CDT
Moon 1:16 AM CDT (5/12) 12:31 PM CDT (5/12)
Length of Visible Light 15h 01m
Length of Day
14h 04m
Waning Gibbous, 52% of the Moon is Illuminated
May 12
Waning Gibbous
May 12
Last Quarter
May 20
New
May 28
First Quarter
Jun 4
Full

Hourly Weather History & Observations

Time (CDT) Temp. Dew Point Humidity Pressure Visibility Wind Dir Wind Speed Gust Speed Precip Events Conditions
12:53 AM 63.0 °F 53.1 °F 70% 30.11 in 10.0 mi Calm Calm - N/A   Clear
1:53 AM 63.0 °F 51.1 °F 65% 30.11 in 10.0 mi Calm Calm - N/A   Clear
2:53 AM 62.1 °F 53.1 °F 72% 30.10 in 10.0 mi Calm Calm - N/A   Clear
3:53 AM 62.1 °F 53.1 °F 72% 30.10 in 10.0 mi Calm Calm - N/A   Clear
4:53 AM 63.0 °F 51.1 °F 65% 30.12 in 10.0 mi North 3.5 mph - 0.00 in   Overcast
5:53 AM 62.1 °F 51.1 °F 67% 30.14 in 10.0 mi North 3.5 mph - N/A   Clear
6:53 AM 63.0 °F 52.0 °F 67% 30.16 in 10.0 mi Calm Calm - N/A   Mostly Cloudy
7:53 AM 64.0 °F 52.0 °F 65% 30.18 in 10.0 mi NE 3.5 mph - N/A   Partly Cloudy
8:53 AM 64.9 °F 52.0 °F 63% 30.17 in 8.0 mi NNE 4.6 mph - N/A   Clear
9:53 AM 68.0 °F 52.0 °F 56% 30.17 in 10.0 mi ENE 4.6 mph - N/A   Clear
10:32 AM 69.8 °F 51.8 °F 53% 30.17 in 4.0 mi NNE 5.8 mph - N/A   Haze
10:53 AM 69.1 °F 52.0 °F 54% 30.16 in 5.0 mi NE 6.9 mph - N/A   Haze
11:16 AM 69.8 °F 51.8 °F 53% 30.16 in 2.0 mi NNE 8.1 mph - N/A   Haze
11:20 AM 71.6 °F 51.8 °F 50% 30.16 in 4.0 mi NE 8.1 mph - N/A   Haze
11:35 AM 71.6 °F 53.6 °F 53% 30.15 in 2.5 mi North 6.9 mph - N/A   Haze
11:50 AM 73.4 °F 53.6 °F 50% 30.14 in 1.2 mi North 8.1 mph - N/A   Haze
11:53 AM 73.0 °F 53.1 °F 49% 30.14 in 1.5 mi North 8.1 mph - N/A   Haze
12:22 PM 73.4 °F 51.8 °F 47% 30.15 in 3.0 mi NE 5.8 mph - N/A   Haze
12:53 PM 73.9 °F 51.1 °F 45% 30.14 in 4.0 mi ENE 6.9 mph - N/A   Haze
1:53 PM 73.9 °F 50.0 °F 43% 30.13 in 10.0 mi East 5.8 mph - N/A   Mostly Cloudy
2:53 PM 75.0 °F 50.0 °F 41% 30.11 in 10.0 mi East 5.8 mph - N/A   Overcast
3:53 PM 75.0 °F 48.9 °F 40% 30.10 in 10.0 mi ENE 5.8 mph - N/A   Overcast
4:53 PM 75.9 °F 51.1 °F 42% 30.08 in 10.0 mi ENE 8.1 mph - N/A   Overcast
5:53 PM 73.9 °F 51.1 °F 45% 30.09 in 10.0 mi ENE 9.2 mph - N/A   Overcast
6:53 PM 72.0 °F 54.0 °F 53% 30.10 in 10.0 mi East 6.9 mph - N/A   Mostly Cloudy
7:53 PM 70.0 °F 54.0 °F 57% 30.11 in 10.0 mi East 6.9 mph - N/A   Scattered Clouds
8:53 PM 68.0 °F 53.1 °F 59% 30.12 in 10.0 mi ENE 3.5 mph - N/A   Clear
9:53 PM 66.9 °F 54.0 °F 63% 30.13 in 10.0 mi East 3.5 mph - N/A   Clear
10:53 PM 64.9 °F 54.0 °F 68% 30.12 in 10.0 mi NNE 3.5 mph - N/A   Clear
11:53 PM 64.0 °F 55.0 °F 73% 30.11 in 10.0 mi NE 3.5 mph - N/A   Clear